This demonstration page uses our WeatherBlox Daily Observations layout. Learn more.

Left ArrowRight Arrow

40.92945, -100.16068

Hourly Observations for May 18, 2022

Temp ( °F °C ) Dew Point ( °F °C ) Humidity (%) Winds ( mph kmh ) Pressure ( in mb ) Visibility ( mi km ) Precip ( " mm )
12:15 am 00:15 Clear 68 20.2 59 15 72 72 N 13 20 29.77 1008 10 16 0.00 0.00
12:35 am 00:35 Clear 68 20 58 14.4 70 70 N 14 22 29.78 1009 10 16 0.00 0.00
12:55 am 00:55 Clear 67 19.5 57 14 71 71 NNE 9 15 29.81 1009 10 16 0.00 0.00
1:15 am 01:15 Clear 65 18.6 57 13.8 74 74 N 12 19 29.81 1010 10 16 0.00 0.00
1:35 am 01:35 Clear 65 18.5 56 13.5 73 73 NNW 9 15 29.81 1009 10 16 0.00 0.00
1:55 am 01:55 Clear 65 18.6 56 13.3 71 71 N 13 20 29.82 1010 10 16 0.00 0.00
2:15 am 02:15 Clear 65 18.5 56 13.3 72 72 NNW 8 13 29.82 1010 10 16 0.00 0.00
2:35 am 02:35 Clear 63 17.1 56 13.3 78 78 WNW 6 9 29.84 1010 10 16 0.00 0.00
2:55 am 02:55 Clear 60 15.7 56 13.4 86 86 WNW 9 15 29.86 1011 10 16 0.00 0.00
3:15 am 03:15 Clear 60 15.8 55 13 84 84 WNW 9 15 29.85 1011 10 16 0.00 0.00
3:35 am 03:35 Clear 60 15.5 55 12.8 84 84 NW 8 13 29.85 1011 10 16 0.00 0.00
3:55 am 03:55 Clear 58 14.5 54 12.4 87 87 NW 6 9 29.87 1012 10 16 0.00 0.00
4:15 am 04:15 Clear 57 13.7 54 12.1 90 90 NW 8 13 29.88 1012 10 16 0.00 0.00
4:35 am 04:35 Clear 56 13.5 54 12 91 91 NW 7 11 29.88 1012 10 16 0.00 0.00
4:55 am 04:55 Clear 56 13.5 53 11.5 88 88 W 3 6 29.89 1012 10 16 0.00 0.00
5:15 am 05:15 Clear 56 13.2 53 11.6 90 90 W 7 11 29.89 1012 10 16 0.00 0.00
5:35 am 05:35 Clear 55 13 53 11.5 91 91 W 9 15 29.90 1013 10 16 0.00 0.00
5:55 am 05:55 Clear 55 12.6 52 11.2 91 91 WNW 7 11 29.91 1013 10 16 0.00 0.00
6:15 am 06:15 Clear 55 12.5 52 11.3 92 92 WNW 7 11 29.92 1013 10 16 0.00 0.00
6:35 am 06:35 Sunny 54 12.4 52 11 91 91 W 6 9 29.93 1014 10 16 0.00 0.00
6:55 am 06:55 Sunny 54 12.1 51 10.8 92 92 WNW 7 11 29.94 1014 10 16 0.00 0.00
7:15 am 07:15 Sunny 56 13.1 53 11.5 90 90 WNW 6 9 29.94 1014 10 16 0.00 0.00
7:35 am 07:35 Sunny 57 14 53 11.8 87 87 WNW 7 11 29.93 1014 10 16 0.00 0.00
7:55 am 07:55 Sunny 59 14.9 54 12.2 84 84 WNW 8 13 29.93 1013 10 16 0.00 0.00
8:15 am 08:15 Sunny 60 15.6 54 12.4 81 81 WNW 10 17 29.93 1014 10 16 0.00 0.00
8:35 am 08:35 Sunny 62 16.4 54 12.4 77 77 WNW 8 13 29.93 1014 10 16 0.00 0.00
8:55 am 08:55 Sunny 63 17.2 55 12.7 75 75 NW 8 13 29.93 1013 10 16 0.00 0.00
9:15 am 09:15 Sunny 65 18.1 55 12.8 71 71 NNW 7 11 29.92 1013 10 16 0.00 0.00
9:35 am 09:35 Sunny 66 18.8 55 12.6 67 67 WNW 3 6 29.91 1013 10 16 0.00 0.00
9:55 am 09:55 Sunny 67 19.6 55 12.8 65 65 NW 6 9 29.91 1013 10 16 0.00 0.00
10:15 am 10:15 Sunny 69 20.3 56 13.2 64 64 NW 5 7 29.90 1013 10 16 0.00 0.00
10:35 am 10:35 Sunny 70 21.3 56 13.2 60 60 WNW 3 6 29.89 1012 10 16 0.00 0.00
10:55 am 10:55 Sunny 72 22 54 12.2 54 54 Calm 29.88 1012 10 16 0.00 0.00
11:15 am 11:15 Sunny 73 22.6 54 12.2 52 52 Calm 29.87 1012 10 16 0.00 0.00
11:35 am 11:35 Sunny 74 23.3 55 12.5 51 51 Calm 29.85 1011 10 16 0.00 0.00
11:55 am 11:55 Sunny 75 23.7 52 10.9 45 45 W 3 6 29.85 1011 10 16 0.00 0.00
12:15 pm 12:15 Sunny 75 24 53 11.4 45 45 Calm 29.85 1011 10 16 0.00 0.00
12:35 pm 12:35 Sunny 76 24.5 49 9.7 39 39 Calm 29.84 1011 10 16 0.00 0.00
12:55 pm 12:55 Sunny 77 25 52 11.1 42 42 Calm 29.83 1010 10 16 0.00 0.00
1:15 pm 13:15 Sunny 77 25.2 49 9.5 37 37 Calm 29.82 1010 10 16 0.00 0.00
1:35 pm 13:35 Sunny 77 25 52 11.2 42 42 Calm 29.81 1009 10 16 0.00 0.00
1:55 pm 13:55 Sunny 79 25.9 50 9.8 36 36 SSW 3 6 29.80 1009 10 16 0.00 0.00
2:15 pm 14:15 Sunny 80 26.4 52 11.2 39 39 SE 6 9 29.79 1009 10 16 0.00 0.00
2:35 pm 14:35 Sunny 80 26.9 52 11.3 38 38 SSE 6 9 29.77 1008 10 16 0.00 0.00
2:55 pm 14:55 Sunny 81 27.2 51 10.8 36 36 SW 5 7 29.77 1008 10 16 0.00 0.00
3:15 pm 15:15 Sunny 81 27.2 47 8.4 31 31 W 3 6 29.75 1008 10 16 0.00 0.00
3:35 pm 15:35 Sunny 81 27.3 48 8.7 31 31 Calm 29.75 1007 10 16 0.00 0.00
3:55 pm 15:55 Sunny 83 28.4 50 9.8 31 31 S 5 7 29.72 1007 10 16 0.00 0.00
4:15 pm 16:15 Sunny 83 28.2 47 8.6 29 29 Calm 29.71 1006 10 16 0.00 0.00
4:35 pm 16:35 Sunny 83 28.2 49 9.3 31 31 Calm 29.70 1006 10 16 0.00 0.00
4:55 pm 16:55 Sunny 83 28.5 49 9.2 30 30 SSE 7 11 29.69 1005 10 16 0.00 0.00
5:15 pm 17:15 Sunny 83 28.2 51 10.4 33 33 SSE 5 7 29.68 1005 10 16 0.00 0.00
5:35 pm 17:35 Sunny 83 28.3 51 10.5 33 33 SSW 9 15 29.68 1005 10 16 0.00 0.00
5:55 pm 17:55 Sunny 83 28.2 51 10.8 34 34 S 8 13 29.67 1005 10 16 0.00 0.00
6:15 pm 18:15 Sunny 83 28.5 52 10.9 33 33 S 8 13 29.66 1004 10 16 0.00 0.00
6:35 pm 18:35 Sunny 83 28.6 50 10 31 31 SW 9 15 29.65 1004 10 16 0.00 0.00
6:55 pm 18:55 Sunny 83 28.5 49 9.2 30 30 WSW 8 13 29.63 1003 10 16 0.00 0.00
7:15 pm 19:15 Sunny 82 27.9 51 10.3 33 33 SSW 7 11 29.64 1004 10 16 0.00 0.00
7:35 pm 19:35 Sunny 79 26.3 53 11.5 40 40 S 10 17 29.64 1004 10 16 0.00 0.00
7:55 pm 19:55 Sunny 77 25.2 53 11.8 43 43 S 8 13 29.65 1004 10 16 0.00 0.00
8:15 pm 20:15 Sunny 76 24.5 53 11.6 45 45 S 9 15 29.66 1004 10 16 0.00 0.00
8:35 pm 20:35 Sunny 76 24.3 51 10.4 42 42 S 12 19 29.66 1004 10 16 0.00 0.00
8:55 pm 20:55 Clear 73 23 51 10.4 45 45 S 10 17 29.67 1005 10 16 0.00 0.00
9:15 pm 21:15 Clear 73 22.9 50 10 44 44 S 12 19 29.68 1005 10 16 0.00 0.00
9:35 pm 21:35 Clear 73 22.5 49 9.6 44 44 S 12 19 29.67 1005 10 16 0.00 0.00
9:55 pm 21:55 Clear 70 21.1 50 10 49 49 S 9 15 29.68 1005 10 16 0.00 0.00
10:15 pm 22:15 Clear 70 20.9 50 10 50 50 S 13 20 29.71 1006 10 16 0.00 0.00
10:35 pm 22:35 Clear 71 21.7 51 10.4 49 49 S 12 19 29.71 1006 10 16 0.00 0.00
10:55 pm 22:55 Clear 71 21.4 51 10.7 51 51 S 10 17 29.71 1006 10 16 0.00 0.00
11:15 pm 23:15 Clear 70 21 51 10.8 52 52 S 10 17 29.70 1006 10 16 0.00 0.00
11:35 pm 23:35 Clear 70 21.2 52 11 52 52 S 15 24 29.69 1006 10 16 0.00 0.00
11:55 pm 23:55 Clear 71 21.6 53 11.5 53 53 S 18 30 29.68 1005 10 16 0.00 0.00

Powered by AerisWeather